User: anonymous   Login
Location: ????????
(55.3155°N, 39.2900°E)
Time: 12:53:55
(UTC+00:00)
Language:

Cosmos 2056 Rocket - Orbit

View from above orbital plane
View from above orbital plane
View from above satellite
View from above satellite

Ground track
Ground track

The orbit data is extracted from the following two-line orbital elements,

1 20433U 90004B   24171.93948127  .00000354  00000-0  12748-3 0  9990
2 20433  74.0368 335.4254 0040815 201.3612 274.0774 14.36799277802401
Epoch (UTC): 19 June 2024 22:32:51
Eccentricity: 0.0040815
inclination: 74.0368°
perigee height: 740 km
apogee height: 798 km
right ascension of ascending node: 335.4254°
argument of perigee: 201.3612°
revolutions per day: 14.36799277
mean anomaly at epoch: 274.0774°
orbit number at epoch: 80240

The dashed part of the orbit path shows where the satellite is in the earth's shadow,  

DLR